• Join FlightAware (Why Join?)
  • Login
  • US Flag 
12:07AM EDT


 

Airport Tracker/Info


-or-


 

Live Flight TrackerFlight Track Log ✈ UPS1219 ✈ 26-Mar-2014 ✈ KIAD - KSDF

Flight Track Log - Related Links

Times and Time Zones

All times are in EDT time to prevent confusion due to time zone crossing. See the UPS1219 flight status page for this flight to view local times or setup timezone preferences in your user account.

Time Position Orientation Groundspeed Altitude Reporting Facility
EDT Latitude Longitude Course Direction KTS MPH feet Rate Location/Type
10:51PM 38.9333 -77.5000 247° West 161 185 2,100  Level Potomac TRACON
10:52PM 38.9167 -77.5500 246° West 216 249 5,200 3,120 Climbing Potomac TRACON
10:54PM 38.9106 -77.6483 265° West 232 267 9,000 3,120 Climbing Washington Center
10:55PM 38.8981 -77.7600 262° West 274 315 12,200 3,780 Climbing Washington Center
10:56PM 38.8856 -77.8772 262° West 331 381 16,700 4,560 Climbing Washington Center
10:56PM 38.8747 -77.9967 263° West 338 389 21,200 3,960 Climbing Washington Center
10:57PM 38.8617 -78.1217 262° West 348 400 24,600 2,820 Climbing Washington Center
10:59PM 38.8525 -78.2572 265° West 366 421 26,900 1,140 Climbing Washington Center
11:00PM 38.8472 -78.4036 267° West 390 449 27,000 1,080 Climbing Washington Center
11:00PM 38.8250 -78.5494 259° West 416 479 29,100 2,400 Climbing Washington Center
11:01PM 38.8028 -78.6897 259° West 418 481 31,800 3,060 Climbing Washington Center
11:03PM 38.7803 -78.8247 258° West 412 474 35,400 2,040 Climbing Washington Center
11:04PM 38.7581 -78.9567 258° West 401 461 36,000 300 Climbing Washington Center
11:05PM 38.7353 -79.0914 258° West 389 448 36,000  Level Washington Center
11:05PM 38.7128 -79.2233 258° West 389 448 36,000  Level Washington Center
11:06PM 38.6936 -79.3633 260° West 400 460 36,000  Level Washington Center
11:08PM 38.6731 -79.4900 258° West 400 460 36,000  Level Washington Center
11:09PM 38.6497 -79.6244 258° West 405 466 36,000  Level Washington Center
11:09PM 38.6264 -79.7639 258° West 405 466 36,000  Level Washington Center
11:10PM 38.5981 -79.9111 256° West 400 460 36,000  Level Washington Center
11:11PM 38.5744 -80.0478 258° West 400 460 36,000  Level Washington Center
11:14PM 38.5661 -80.3628 268° West 391 450 36,000  Level Indianapolis Center
11:15PM 38.5739 -80.5117 274° West 389 448 36,000  Level Indianapolis Center
11:16PM 38.5711 -80.6486 269° West 388 447 36,000  Level Indianapolis Center
11:17PM 38.5456 -80.7833 256° West 389 448 36,000  Level Indianapolis Center
11:18PM 38.5192 -80.9178 256° West 389 448 36,000  Level Indianapolis Center
11:19PM 38.4928 -81.0519 256° West 388 447 36,000  Level Indianapolis Center
11:20PM 38.4664 -81.1864 256° West 388 447 36,000  Level Indianapolis Center
11:21PM 38.4397 -81.3214 256° West 388 447 36,000  Level Indianapolis Center
11:22PM 38.4128 -81.4567 256° West 388 447 36,000  Level Indianapolis Center
11:23PM 38.3803 -81.6186 256° West 388 447 36,000  Level Indianapolis Center
11:24PM 38.3531 -81.7525 256° West 388 447 36,000  Level Indianapolis Center
11:25PM 38.3183 -81.8831 251° West 388 447 36,000  Level Indianapolis Center
11:26PM 38.2819 -82.0117 250° West 387 445 36,000  Level Indianapolis Center
11:27PM 38.2458 -82.1394 250° West 385 443 36,000  Level Indianapolis Center
11:28PM 38.2100 -82.2661 250° West 382 440 36,000 -600 Level Indianapolis Center
11:29PM 38.1742 -82.3922 250° West 381 438 34,800 -1,200 Descending Indianapolis Center
11:30PM 38.1369 -82.5222 250° West 382 440 33,600 -1,140 Descending Indianapolis Center
11:31PM 38.1008 -82.6472 250° West 385 443 32,500 -540 Descending Indianapolis Center
11:33PM 38.0258 -82.9067 248° West 390 449 32,000 -180 Descending Indianapolis Center
11:34PM 37.9883 -83.0350 250° West 390 449 32,000  Level Indianapolis Center
11:35PM 37.9447 -83.1839 250° West 388 447 32,000  Level Indianapolis Center
11:36PM 37.9072 -83.3111 250° West 388 447 32,000  Level Indianapolis Center
11:37PM 37.8694 -83.4386 249° West 387 445 32,000  Level Indianapolis Center
11:38PM 37.8317 -83.5653 249° West 387 445 32,000 -1,140 Level Indianapolis Center
11:44PM 37.6322 -84.2268 249° West 360 414 24,800 -1,500 Descending FlightAware ADS-B (KBRY)
11:45PM 37.5836 -84.4209 267° West 390 449 21,700 -2,760 Descending FlightAware ADS-B (KBRY)
11:46PM 37.5967 -84.5500 280° West 385 443 18,300 -3,600 Descending FlightAware ADS-B (KBRY)
11:47PM 37.6157 -84.6816 280° West 366 421 14,600 -3,180 Descending FlightAware ADS-B (KBRY)
11:48PM 37.6211 -84.7189 280° West 355 409 12,800 -1,980 Descending FlightAware ADS-B (KBRY)
11:49PM 37.6478 -84.9064 282° West 330 380 10,700 -1,320 Descending FlightAware ADS-B (KBRY)
11:50PM 37.6965 -85.0120 312° West 270 311 9,800 -1,140 Descending FlightAware ADS-B (KBRY)
11:51PM 37.7455 -85.0793 313° West 260 299 8,500 -1,440 Descending FlightAware ADS-B (KBRY)
11:52PM 37.7951 -85.1473 313° West 263 303 7,000 -1,440 Descending FlightAware ADS-B (KBRY)
11:53PM 37.8313 -85.2292 293° West 268 308 5,600 -1,140 Descending FlightAware ADS-B (KBRY)
11:54PM 37.8584 -85.3113 292° West 254 292 4,800 -780 Descending FlightAware ADS-B (KBRY)
11:55PM 37.8860 -85.3947 293° West 249 287 4,100 -720 Descending FlightAware ADS-B (KBRY)
11:56PM 37.9127 -85.4754 293° West 247 284 3,400 -660 Descending FlightAware ADS-B (KBRY)
11:57PM 37.9557 -85.5407 311° West 243 280 2,800 -660 Descending FlightAware ADS-B (KBRY)
11:58PM 37.9991 -85.6051 310° West 234 269 2,100 -300 Descending FlightAware ADS-B (KBRY)
11:59PM 38.0362 -85.6580 312° West 175 201 2,200 240 Climbing FlightAware ADS-B (KBRY)
12:00AM 38.0500 -85.6667 208° Southwest 173 199 2,400 -120 Climbing Louisville TRACON
12:00AM 38.0731 -85.6923 343° North 161 185 2,100 -660 Descending FlightAware ADS-B (KBRY)
12:01AM 38.1100 -85.7050 345° North 145 167 1,300 -1,020 Descending FlightAware ADS-B (KBRY)
12:02AM 38.1262 -85.7105 345° North 146 168 800 -420 Descending FlightAware ADS-B (KBRY)
12:02AM 38.1333 -85.7167 335° Northwest 143 165 1,000 480 Climbing Louisville TRACON
12:04AM 38.1667 -85.7333 208° Southwest  Level FlightAware Approximate
12:05AM 38.1667 -85.7333 208° Southwest  Level FlightAware Approximate
12:11AM 38.1741 -85.7365 208° Southwest  Level Estimated